Temp_Advection
nan nan nan nan nan nan nan nan nan nan nan nan nan nan nan nan nan nan nan nan nan nan nan nan nan nan nan nan nan nan nan nan nan nan nan nan nan nan nan nan nan nan nan nan nan nan nan nan nan nan nan nan nan nan
nan 0 0 0 -0 -0 -0 -0 -0 -1 -0 -0 -0 -0 0 0 0 -1 -1 -1 0 0 -0 -1 0 -0 -1 -0 0 0 -0 -0 -0 -0 -0 0 -0 0 0 0 -0 -0 0 -0 -0 -0 -0 -0 -0 -0 -1 -1 -1 nan
nan 0 0 0 0 -0 -0 -0 -0 -0 -0 -0 -0 0 0 -0 -0 -0 -0 -0 0 -0 -0 0 0 -0 0 0 0 0 -0 -0 -0 0 -0 0 -0 -0 0 -0 -0 0 0 -0 -0 -0 0 0 -0 -1 -1 -1 -1 nan
nan 0 0 0 -0 -0 -0 -0 -0 -0 -0 -0 -0 -0 -0 -0 0 0 0 0 -0 -0 -0 0 -1 -1 -0 0 0 -1 -0 0 0 0 -0 -0 0 -0 -0 -0 0 0 -0 -0 -0 0 -1 0 -1 -1 -2 -1 -1 nan
nan -0 -0 0 0 0 0 -0 -0 -0 -0 -0 -0 -0 -0 -0 -0 0 -0 -0 -0 0 -0 -0 -0 -0 -0 -0 -1 -0 0 -0 0 0 0 -0 -0 -0 0 -0 0 0 0 0 0 -0 -0 -1 0 0 -1 -1 -2 nan
nan -0 -0 -0 -0 -0 -0 -0 -0 -0 -0 -0 -0 -0 -0 -0 -0 -0 -0 -0 0 1 0 0 0 -0 -0 -0 -0 1 0 0 1 0 -0 -0 -0 -0 0 -0 -0 -0 -0 0 0 0 -0 -0 -0 -0 -0 -0 -1 nan
nan 0 -0 0 -0 -0 -0 0 0 0 -0 -0 0 -0 0 0 -0 -0 -0 -0 -0 -0 0 0 -0 0 0 1 1 0 0 0 1 0 0 -0 -0 0 0 0 -1 -0 -0 -0 -0 -1 -0 -0 -0 -1 -0 -0 -0 nan
nan -0 -0 0 -0 -0 0 0 -0 -0 -0 0 -0 0 -0 -0 -0 -0 0 0 -0 -0 0 0 -0 0 0 0 -0 -0 0 0 -0 0 -0 -0 0 0 0 -1 -1 -1 -1 -0 -0 -0 -1 -0 -0 -0 -1 -1 -1 nan
nan 0 0 -0 -0 0 0 -0 0 -0 -0 0 0 0 0 -0 0 -0 0 0 0 -0 -0 -0 0 -0 0 0 -0 0 -0 -0 -0 -0 0 0 -0 0 -1 -0 -0 -1 -1 -1 -1 -1 -0 -0 -0 -0 -1 -1 -1 nan
nan 0 0 -0 -0 0 1 0 -0 0 -0 -0 0 -0 0 0 -0 0 0 -0 0 0 0 0 0 0 0 0 0 0 0 0 -0 -0 -0 -0 -0 -1 -0 -0 -0 -0 -0 -1 -1 -0 -0 -0 -0 -0 -0 -0 -0 nan
nan 0 0 0 -0 -0 -0 -0 0 0 -0 -0 -0 -0 -0 0 0 -0 -0 0 -0 -0 0 0 -0 0 0 0 0 0 0 0 0 -0 -0 -0 -0 -0 -0 -0 -0 -0 -0 -0 -0 -0 -0 -0 -0 -0 -0 -0 -0 nan
nan -0 0 0 0 -0 1 0 0 -0 -0 -0 -1 0 0 -0 -0 -0 -0 0 -0 0 -0 0 -0 0 -0 0 0 -0 0 0 0 -0 -0 -0 -0 -0 -0 -0 -0 -0 -0 -0 -0 -0 -0 -0 -0 -0 -0 -0 0 nan
nan 0 0 0 0 0 1 1 0 0 -0 0 -0 -1 -1 -1 -0 0 0 -0 -0 -0 -0 0 0 0 0 0 0 0 -0 -0 -0 -0 -0 -0 -0 -0 -0 -0 -0 0 -0 -0 -0 0 -0 0 0 -0 -0 0 0 nan
nan 0 -0 -0 0 0 0 1 0 -0 -1 -2 -1 -1 -0 -0 0 -0 -0 -0 -0 -0 -0 0 -0 -0 -0 -0 -0 -0 -0 -0 -0 -0 -0 -0 -0 -0 -0 -0 -0 -0 -0 -0 -0 0 0 -0 -0 0 0 0 0 nan
nan 0 0 -0 0 1 0 0 0 0 -2 -1 -1 -0 -0 -0 -0 -0 -0 -0 -0 -0 0 0 -0 -0 -0 -0 -0 0 -0 -0 -0 -0 -0 -0 -0 -0 -0 -0 -0 -0 -0 -0 0 0 0 0 -0 -0 0 0 0 nan
nan 0 0 0 0 0 -0 -0 -0 -2 -1 -1 -1 -0 -0 -0 -0 -0 -0 -0 0 0 0 -0 -0 -0 -0 -0 -0 -0 0 -0 0 -0 -0 0 0 -0 -0 -0 -0 -0 -0 0 0 0 0 0 -0 -0 0 0 -0 nan
nan -0 0 0 0 0 -0 -1 -2 -2 -1 -0 -0 -0 -0 -0 -0 -0 -0 -0 0 0 -0 -0 -0 -0 -0 -0 -0 -0 -0 0 0 -0 0 0 -0 0 0 0 -0 -0 -0 -0 -0 0 -0 -0 0 -0 -1 -0 -0 nan
nan 0 0 0 0 -0 -5 -3 -1 -1 -0 -0 0 -0 0 -0 -0 0 0 0 0 -0 -0 -0 -0 -0 -0 -0 -0 -0 -0 -0 0 0 0 0 0 0 0 -0 -0 -0 -0 0 -0 -0 0 0 -0 -1 -0 -0 -0 nan
nan 0 0 0 0 -1 -1 -1 -1 -1 0 0 0 -0 -0 -0 0 0 -0 -0 0 -0 -0 -0 -0 -0 -0 -0 -0 -0 -0 -0 -0 0 1 1 0 0 0 0 0 0 -0 -0 0 -0 -0 -0 -0 -0 -0 -0 -0 nan
nan 0 0 0 -0 -1 -1 -0 -0 -1 -0 -0 0 -0 -0 0 -0 -0 -0 0 -0 -0 -0 -0 -0 -0 -0 -0 -0 -0 -0 -0 -1 -1 -0 1 0 0 0 0 -0 -0 -0 -0 -0 -0 -0 -0 -0 -0 -0 -0 -0 nan
nan 0 1 -0 -2 -1 -1 -0 -0 -0 -0 0 0 -0 -0 -1 -1 -0 0 -0 -1 -1 -0 -1 0 1 0 0 0 -0 -0 -0 -0 -1 -1 -0 0 0 0 0 -0 0 -0 -0 -0 -0 -0 -0 -0 -0 -0 -0 -0 nan
nan 0 -0 -1 -0 -0 -0 -0 -0 -0 -0 -0 -0 -0 -0 -0 0 0 -1 -1 -0 -0 -0 0 1 1 0 0 0 0 0 -0 -0 -0 -0 -0 -0 0 -0 -0 0 -0 -0 -0 -0 -0 -0 -0 -0 -0 -0 -0 -0 nan
nan -0 -0 -0 -0 -1 -0 0 0 -0 -0 -0 -0 -0 -0 0 0 -0 -1 -0 -0 0 1 0 0 0 -0 0 0 0 0 0 -0 -0 -0 -0 -0 -0 -0 -0 -0 -0 -0 -0 -0 -0 -0 -0 -0 -0 -0 -0 -0 nan
nan -0 -0 -0 -1 -0 1 -0 -0 -0 -0 -0 -0 -0 -0 0 -0 -1 -0 -0 -0 0 0 0 0 0 0 0 -0 -0 0 0 -0 -0 -0 0 -0 -0 -0 -0 -0 -0 -0 -0 -0 -0 -0 -0 -0 -0 -0 -0 -0 nan
nan -1 -1 -1 0 -1 -1 -0 -0 -0 -0 -0 -0 -0 0 -0 -0 -0 0 0 0 0 0 0 0 0 -0 -1 -0 -0 0 0 0 -0 -0 -0 -0 -0 -0 -0 -0 -0 -0 -0 -0 -0 -0 -0 -0 -0 -0 -0 -0 nan
nan -1 -1 -0 -0 -0 -0 -0 -0 0 0 -0 -0 0 -0 -0 -0 0 0 0 -0 0 0 0 0 -0 -0 -0 -0 -0 -0 -0 -0 -0 -0 -0 -0 -0 -0 -0 -0 -0 -0 -0 -0 -0 -0 -0 -0 -0 -0 -0 -0 nan
nan -0 0 -0 0 -1 -0 0 -0 -1 -0 -0 -0 -0 -0 -0 0 0 0 0 0 -0 -0 0 0 0 -0 -0 -0 -0 -0 -0 -0 -0 -0 -0 -0 -0 -0 -0 -0 -0 -0 0 -0 -0 -0 0 0 -0 -0 -0 0 nan
nan -0 -0 -1 -0 -2 -0 -0 -0 0 0 -0 -1 -0 -0 0 0 0 0 0 0 0 -0 -0 -0 0 0 -0 -0 -0 -0 -0 -0 -0 -0 -0 -0 -0 -0 -0 -0 -0 -0 0 0 0 0 0 0 0 0 -0 0 nan
nan 0 -1 -1 0 -0 -0 -0 0 0 -0 -0 -0 0 0 0 0 1 1 0 0 0 0 -0 -0 0 0 -0 -0 -0 -0 -0 -0 -0 -0 -0 -0 -0 -0 -0 -0 -0 -0 -0 -0 0 0 0 0 0 0 0 0 nan
nan -0 -1 -0 -0 0 0 0 0 0 0 -0 -0 -0 0 1 1 1 0 0 0 0 0 0 -0 -0 0 -0 -0 -0 -0 -0 -0 0 0 -0 -0 -0 0 0 0 0 -0 0 0 0 0 0 0 0 0 0 0 nan
nan -0 -1 -0 -0 0 0 0 0 0 -0 -0 -1 -1 -0 0 0 0 0 0 0 0 0 0 0 0 -0 -0 -0 -0 -0 -0 -0 -0 -0 -0 -0 -0 0 0 0 0 0 0 0 0 0 0 0 0 0 0 0 nan
nan -1 -1 -0 0 -0 0 0 -0 -0 -0 -0 -0 -0 -0 -0 -0 0 0 0 0 0 0 0 0 0 -0 -0 -0 -0 -0 -0 -0 -0 -0 -0 -0 -0 -0 -0 -0 0 -0 0 0 0 0 -0 -0 -0 -0 -0 -0 nan
nan nan nan nan nan nan nan nan nan nan nan nan nan nan nan nan nan nan nan nan nan nan nan nan nan nan nan nan nan nan nan nan nan nan nan nan nan nan nan nan nan nan nan nan nan nan nan nan nan nan nan nan nan nan
Wind_Speed
43 45 46 43 43 40 39 39 39 37 37 37 38 39 43 43 42 41 42 38 42 15 11 22 28 18 18 8 4 8 7 6 6 6 5 4 4 4 3 3 5 8 8 5 6 5 8 4 5 4 2 14 13 13
31 26 25 31 36 38 38 36 36 34 32 27 28 30 39 41 40 39 38 38 36 21 7 23 23 26 30 25 23 18 7 8 10 4 4 3 3 2 6 4 2 5 6 5 8 6 1 4 3 12 16 14 15 19
28 26 24 20 21 24 26 27 27 26 28 28 26 27 33 35 36 36 27 28 35 12 13 14 21 33 27 28 25 10 16 12 10 8 4 2 3 4 5 5 5 3 5 4 2 5 14 16 8 9 16 15 19 22
29 27 27 25 28 29 30 31 30 28 27 25 27 27 25 28 30 33 29 31 31 10 2 4 26 24 34 33 24 25 11 14 9 8 1 2 2 6 4 2 5 5 6 5 8 9 13 8 10 17 20 17 18 18
16 12 10 8 9 11 13 15 18 20 20 20 22 26 29 29 28 28 26 28 33 8 3 5 7 21 28 29 23 27 26 19 12 7 3 4 2 2 0 0 3 3 4 4 5 2 4 8 18 17 18 18 18 18
12 10 9 9 9 12 15 17 16 18 19 23 25 28 25 28 32 30 15 31 31 28 3 3 7 14 27 31 25 33 33 24 18 6 3 6 8 3 3 3 4 3 2 1 2 8 15 12 8 11 17 17 15 12
11 10 12 8 7 8 10 13 14 18 22 22 23 24 27 28 32 28 8 13 43 31 6 1 2 6 16 26 24 17 24 17 15 7 5 3 1 10 2 3 5 4 5 7 6 8 7 5 8 16 15 13 12 11
12 13 11 3 6 7 10 14 15 18 20 23 24 25 25 28 32 29 3 22 41 19 8 3 2 3 14 9 7 18 7 8 10 7 4 3 7 2 3 5 6 9 12 5 7 7 11 9 10 11 11 10 9 9
16 22 19 25 15 13 8 10 16 16 20 26 30 30 34 26 10 16 14 39 26 5 6 3 4 3 12 7 10 11 11 3 4 2 2 4 1 2 5 6 8 10 10 14 16 13 3 3 6 8 8 8 8 9
9 24 24 25 25 31 36 29 26 31 37 42 41 19 8 14 37 38 21 5 6 4 4 3 4 3 7 4 3 5 5 3 2 2 6 3 2 8 7 6 6 8 9 10 10 6 8 5 6 5 5 6 6 7
16 19 20 25 20 22 29 39 37 44 43 21 6 10 49 38 9 5 5 4 4 3 6 6 12 4 8 3 4 5 4 3 4 3 4 2 2 3 8 8 8 7 7 5 3 4 4 2 3 5 9 9 10 13
11 15 18 25 22 19 22 23 20 23 15 18 26 26 11 5 6 4 2 3 3 2 3 3 5 8 6 8 3 5 3 3 3 2 3 3 3 5 5 7 8 8 7 7 5 6 7 8 9 11 13 15 16 18
10 9 13 18 23 25 34 36 40 41 31 24 8 6 5 6 7 3 2 2 2 3 5 2 2 5 5 2 1 2 4 3 5 3 2 2 6 6 6 7 9 10 10 12 13 13 13 15 16 17 19 19 22 26
12 13 11 14 12 14 17 21 19 8 5 9 5 6 4 4 3 3 2 1 3 5 7 4 2 3 5 3 3 5 3 2 3 2 2 2 6 7 8 10 12 16 17 18 19 21 23 24 25 24 24 24 25 27
13 10 11 14 13 14 14 9 10 6 8 7 7 5 4 3 5 6 7 2 6 5 3 2 5 5 4 4 4 3 3 4 3 2 2 8 10 11 13 14 17 18 19 20 21 23 24 25 26 26 24 24 25 25
5 6 10 10 9 8 6 8 10 10 8 6 9 3 8 2 5 9 11 7 11 6 4 5 3 4 5 3 5 3 2 2 2 2 9 12 14 15 16 18 20 20 21 21 22 23 24 24 25 25 23 22 20 19
4 6 10 11 12 9 4 4 9 10 7 6 5 15 6 2 4 8 9 13 9 5 2 3 4 3 2 3 3 3 2 3 12 13 15 16 17 17 18 19 18 19 20 20 20 20 21 20 19 19 21 18 17 17
9 7 5 5 3 4 25 13 9 9 8 9 3 12 9 10 12 9 11 12 4 4 4 3 4 5 3 3 2 3 9 18 20 20 19 18 18 18 18 18 17 16 16 16 15 15 15 14 15 17 15 14 13 13
6 6 5 5 4 5 7 9 9 7 9 4 12 12 7 12 17 11 10 14 18 15 9 5 5 3 3 4 9 15 14 17 21 21 20 18 17 16 15 14 13 13 12 13 12 13 13 13 14 12 11 8 8 9
8 7 7 5 3 7 7 7 7 9 4 4 6 13 11 10 15 19 19 14 13 7 8 5 4 7 10 17 18 20 22 23 25 24 19 16 14 12 13 12 12 11 11 11 11 10 10 10 10 8 7 7 6 7
17 16 13 12 21 13 8 5 7 8 9 5 2 7 9 22 26 24 18 15 14 8 4 11 17 20 19 19 18 19 19 17 17 16 18 16 13 12 11 11 9 8 8 8 7 7 6 8 8 7 6 6 8 8
14 14 14 13 8 7 8 9 11 10 6 7 4 5 6 5 9 16 19 17 9 12 8 14 19 21 21 20 17 15 14 13 15 15 15 14 14 12 10 9 6 6 6 7 6 6 6 7 7 6 6 8 8 8
5 5 6 6 7 6 6 3 4 4 3 2 3 4 4 5 7 8 7 9 8 12 16 19 19 19 21 19 18 18 15 13 15 14 13 12 11 10 8 7 7 6 6 6 6 5 4 4 4 4 4 5 5 5
4 5 5 5 6 3 6 4 4 4 5 3 3 3 3 4 4 7 4 4 6 9 14 16 17 19 19 17 19 18 16 12 14 13 11 8 7 7 6 5 5 4 4 4 3 3 3 2 2 2 2 3 3 3
3 9 6 5 5 5 5 3 3 4 3 2 4 3 2 3 3 3 2 2 5 9 10 9 11 13 17 18 16 14 12 8 7 7 8 6 4 4 3 2 2 2 2 3 3 3 2 2 2 2 2 3 4 4
7 8 5 3 3 4 1 4 2 3 3 3 3 2 2 3 4 3 2 8 9 11 10 8 9 11 12 11 10 9 8 7 5 3 3 2 3 3 3 2 3 3 2 2 2 2 2 2 3 4 4 5 6 6
5 3 6 8 4 8 6 8 7 6 4 3 1 2 3 5 2 0 8 11 12 10 9 9 8 7 10 10 9 7 6 4 4 5 6 6 5 5 5 3 3 3 2 2 3 3 3 4 4 5 6 7 7 7
5 8 5 8 11 12 5 4 4 3 2 3 4 5 4 3 2 5 7 12 10 9 9 11 11 10 9 9 9 7 6 5 5 5 4 5 5 6 5 5 5 5 4 4 4 5 5 6 6 7 8 8 9 9
8 5 6 6 8 11 11 4 2 3 3 2 3 2 3 4 8 15 18 14 11 8 9 10 11 9 7 6 5 4 3 2 3 4 4 4 4 4 4 5 5 6 6 6 5 5 5 6 6 7 8 8 8 10
6 7 7 6 5 5 8 8 8 8 10 11 10 20 22 21 18 16 14 12 9 7 7 8 8 8 6 5 3 2 1 2 3 4 4 4 4 4 5 6 6 6 6 6 6 7 8 8 8 8 9 9 10 11
5 5 8 8 6 14 24 26 25 24 26 28 25 24 17 12 16 12 10 9 9 8 7 6 5 3 2 2 2 2 3 3 3 4 5 5 5 5 6 7 7 7 6 6 6 7 7 7 7 7 8 9 9 10
7 6 8 5 5 9 5 7 9 9 8 7 7 9 6 5 4 6 8 8 7 6 5 4 3 2 2 2 3 3 3 4 5 6 6 6 6 6 6 7 7 6 6 6 7 6 7 7 7 8 9 10 11 11
20 26 18 10 5 5 4 6 5 5 5 3 3 3 3 3 4 6 10 8 8 7 5 3 1 2 2 3 4 4 5 6 8 8 8 8 7 7 6 6 6 7 7 7 7 7 8 9 9 10 11 11 12 12
Wind_Direction
291 288 278 265 260 259 260 261 262 257 251 248 243 246 234 225 227 227 231 225 214 228 237 215 212 192 199 205 167 148 148 188 172 180 197 181 202 227 216 162 166 177 177 191 212 234 268 206 145 200 359 324 306 296
291 301 289 260 255 257 260 259 254 247 250 244 250 231 217 220 223 223 226 227 218 214 224 225 221 215 219 228 209 177 205 158 169 177 197 180 184 201 189 203 191 197 187 190 203 208 243 203 268 298 331 318 311 307
297 290 283 276 262 253 251 251 252 256 247 241 236 221 216 218 217 213 203 191 195 193 202 211 209 216 213 224 216 185 213 187 178 184 170 195 205 163 178 217 205 236 178 219 235 229 254 277 320 341 348 338 329 319
303 299 289 271 261 258 255 252 249 245 240 238 232 214 208 201 195 195 190 178 177 153 177 217 215 219 218 214 217 217 211 218 217 209 280 235 224 195 211 237 200 216 151 212 251 266 308 300 19 346 336 337 342 355
307 305 296 288 267 257 244 232 228 226 219 212 207 208 204 202 200 202 200 202 201 150 134 168 193 215 209 203 214 225 224 223 201 197 195 202 219 176 232 242 218 190 193 214 269 41 310 297 321 324 336 335 336 341
326 311 310 300 267 254 242 231 226 219 213 208 203 200 202 198 195 183 187 198 195 193 157 158 191 226 213 216 223 224 222 220 219 192 178 215 214 191 205 233 105 72 87 70 237 304 290 301 303 317 328 333 330 325
354 342 325 307 277 259 242 220 213 208 204 198 195 190 190 187 183 173 188 193 198 188 159 161 254 203 207 205 219 223 217 222 205 186 192 211 231 190 209 229 66 3 303 282 277 295 260 327 314 323 329 332 326 335
4 10 57 52 308 267 231 214 199 191 190 186 181 179 177 171 181 186 359 173 172 163 160 169 222 173 183 173 175 204 191 196 191 182 196 207 169 158 230 51 9 342 321 288 337 304 291 282 292 319 334 342 348 5
70 70 76 71 81 62 99 138 170 174 168 165 160 157 154 150 132 149 159 154 159 157 150 159 163 196 173 157 166 172 187 203 184 165 159 152 36 183 44 4 358 353 339 318 317 313 275 325 316 323 339 6 29 34
85 52 44 80 69 78 97 99 118 132 135 141 142 135 110 133 130 131 136 114 143 191 178 196 184 167 180 135 109 131 146 169 168 146 116 67 76 91 43 24 3 347 336 330 342 330 332 6 349 356 21 42 61 74
69 57 45 58 87 93 88 100 104 120 132 124 92 91 123 138 143 135 110 129 140 188 193 199 194 170 182 155 154 190 162 156 182 117 146 131 129 64 10 18 13 6 0 5 330 315 334 13 68 72 74 81 92 100
80 64 49 59 74 93 112 107 89 120 102 117 121 120 108 69 57 84 112 141 190 189 140 178 178 199 166 169 167 177 128 152 158 101 97 132 91 44 35 37 36 42 49 60 74 81 84 90 93 93 91 94 98 105
83 65 43 60 105 82 83 103 112 105 105 115 99 72 36 354 50 57 115 50 69 5 353 31 127 197 170 123 99 124 100 86 119 52 87 70 56 41 49 57 60 67 76 80 80 86 93 97 97 99 104 107 112 108
92 102 84 73 78 74 104 117 131 139 77 62 56 50 60 10 34 44 339 298 327 321 336 2 61 50 10 62 6 70 46 73 73 93 112 79 78 77 77 81 85 83 87 91 94 98 100 102 103 104 105 108 108 106
75 100 105 82 67 63 70 111 153 163 71 64 37 45 55 350 2 340 352 5 350 322 1 79 55 54 24 69 30 101 56 68 38 122 91 106 104 98 94 96 99 99 101 103 106 106 105 105 104 104 103 104 103 103
62 81 96 66 57 44 58 94 124 85 65 68 48 37 357 40 348 2 358 354 12 24 64 47 81 63 43 52 50 30 86 107 134 93 118 118 115 114 112 109 107 108 107 107 105 104 104 102 102 103 104 97 95 95
100 82 78 80 60 36 32 92 54 57 63 51 38 26 28 9 311 331 341 339 2 23 58 42 55 53 72 68 67 27 95 118 114 108 121 127 123 120 117 114 114 114 113 111 109 104 102 105 106 101 95 95 95 93
84 72 94 127 50 32 53 50 74 67 66 38 56 2 23 30 1 15 8 19 59 79 60 67 79 50 49 84 104 111 104 103 116 122 123 124 123 122 120 116 115 113 111 108 105 105 106 104 94 88 89 89 91 90
68 49 66 122 79 80 63 47 51 87 60 56 38 32 27 25 38 45 44 62 83 90 91 65 57 46 56 69 107 111 113 114 111 113 114 116 117 117 116 116 114 112 111 109 109 100 94 90 87 87 86 87 86 86
103 90 75 103 82 81 75 57 66 85 72 81 42 44 49 33 37 42 51 55 60 61 51 46 36 39 73 90 118 123 127 130 125 113 104 107 109 113 111 111 109 106 104 100 96 92 89 90 91 86 84 83 77 81
100 91 87 103 63 70 80 79 70 103 124 104 55 65 74 52 44 39 33 58 57 38 65 67 80 99 109 117 123 127 128 132 128 129 128 120 116 113 109 105 102 102 95 89 80 84 84 87 86 78 66 71 70 71
104 91 66 53 73 74 70 47 107 118 95 119 79 63 46 24 23 29 49 42 56 37 58 88 103 109 108 105 110 112 115 122 120 118 116 115 115 111 106 96 88 89 91 88 84 87 94 95 90 75 63 65 62 61
89 58 55 63 81 74 117 109 80 62 89 90 64 48 34 36 33 36 63 35 55 61 96 102 105 105 104 104 106 106 109 114 115 112 113 113 110 103 96 91 80 68 68 75 72 72 82 89 83 72 63 54 47 42
83 61 46 62 71 113 121 58 76 80 82 61 63 54 33 39 49 68 67 46 45 89 100 108 113 111 109 110 104 103 104 108 109 109 100 90 92 92 83 71 63 56 59 65 61 73 74 78 77 61 39 25 8 0
93 12 26 28 66 80 71 41 27 60 80 63 84 45 13 53 73 67 86 84 87 94 103 113 116 117 115 110 109 106 103 93 93 105 105 93 70 69 64 52 41 33 33 51 53 53 55 45 35 26 11 358 348 339
70 17 45 29 15 88 106 89 85 119 105 73 63 85 71 77 71 83 100 138 126 111 103 103 113 121 116 113 118 121 120 113 94 77 97 56 35 26 11 360 355 359 345 350 350 346 353 351 348 346 345 345 341 338
72 5 47 40 85 93 84 73 73 74 69 84 105 62 65 69 84 105 136 140 136 130 127 122 111 122 121 120 118 112 104 92 85 78 61 44 31 21 15 11 12 9 2 356 1 4 359 351 344 340 338 337 336 333
72 38 74 9 60 44 88 56 46 54 57 38 74 46 96 130 129 143 141 146 140 132 131 126 123 119 113 112 107 96 93 89 71 44 34 28 24 22 24 19 7 359 356 343 338 338 335 334 331 332 335 336 332 329
51 58 79 42 55 48 39 42 34 40 23 43 102 101 100 84 121 130 132 128 117 117 121 121 120 114 110 101 86 82 73 50 16 1 356 2 359 2 1 358 354 348 348 348 344 336 332 333 329 324 325 325 323 324
44 34 90 63 59 39 23 40 72 80 91 97 97 110 100 99 110 117 119 122 128 135 126 123 122 112 103 87 64 62 28 357 355 356 358 359 355 347 343 340 340 338 337 334 333 329 330 333 332 332 331 330 331 330
83 85 80 64 78 105 96 86 87 92 94 99 114 104 104 105 103 108 123 125 120 116 116 117 117 103 86 24 15 16 14 4 2 3 0 353 345 337 330 328 329 329 330 330 330 328 328 330 332 334 336 337 337 337
38 70 117 107 153 168 83 81 77 81 74 73 70 100 92 102 98 140 139 128 130 135 143 139 139 126 4 9 15 17 20 18 12 3 356 347 339 335 332 333 335 337 339 339 339 342 344 346 348 348 346 344 342 341
90 96 103 100 108 146 137 119 85 96 82 78 71 62 73 87 127 155 169 159 149 149 153 154 130 49 32 22 17 18 17 8 357 350 346 342 341 341 342 343 344 345 346 351 351 349 348 347 346 344 344 343 343 342
Height
1327 1323 1321 1323 1327 1330 1332 1334 1336 1338 1340 1343 1347 1351 1357 1367 1376 1384 1386 1391 1396 1397 1398 1400 1402 1408 1413 1415 1415 1419 1427 1429 1432 1434 1434 1432 1433 1427 1424 1423 1426 1427 1430 1432 1433 1436 1429 1411 1412 1414 1409 1408 1405 1403
1314 1311 1307 1307 1311 1315 1318 1320 1323 1325 1327 1331 1334 1335 1344 1354 1364 1372 1376 1381 1389 1393 1393 1395 1397 1401 1404 1407 1413 1415 1414 1416 1420 1424 1427 1425 1428 1428 1420 1419 1422 1421 1418 1419 1419 1412 1408 1409 1409 1409 1408 1406 1403 1400
1305 1302 1301 1300 1301 1303 1305 1308 1311 1314 1317 1321 1325 1329 1336 1344 1352 1361 1364 1371 1380 1384 1388 1391 1391 1394 1399 1402 1407 1410 1411 1412 1413 1415 1417 1418 1418 1420 1418 1418 1413 1415 1413 1414 1414 1406 1405 1405 1408 1409 1406 1402 1399 1396
1295 1291 1289 1290 1291 1292 1294 1297 1300 1303 1307 1311 1316 1323 1330 1337 1345 1353 1359 1366 1372 1379 1383 1384 1384 1388 1391 1398 1401 1403 1407 1409 1412 1415 1416 1416 1415 1412 1412 1407 1409 1407 1409 1409 1405 1405 1403 1405 1407 1406 1403 1400 1397 1394
1289 1287 1285 1284 1283 1284 1285 1288 1291 1296 1300 1305 1310 1316 1324 1333 1342 1350 1358 1363 1369 1376 1379 1382 1381 1383 1389 1393 1397 1400 1404 1407 1408 1412 1413 1411 1410 1411 1411 1410 1406 1406 1405 1405 1401 1411 1411 1409 1407 1404 1401 1398 1396 1393
1286 1284 1281 1279 1279 1279 1280 1282 1285 1289 1294 1300 1306 1313 1321 1328 1338 1349 1354 1360 1364 1372 1378 1381 1380 1380 1382 1387 1390 1393 1397 1403 1406 1405 1406 1407 1406 1408 1408 1404 1405 1407 1407 1407 1408 1409 1409 1407 1406 1402 1399 1396 1394 1391
1286 1283 1279 1276 1274 1273 1273 1275 1278 1282 1288 1295 1302 1310 1319 1328 1335 1342 1347 1346 1357 1371 1377 1380 1377 1376 1378 1384 1388 1391 1394 1399 1399 1399 1402 1403 1402 1402 1405 1400 1409 1409 1409 1407 1406 1405 1403 1401 1401 1399 1396 1394 1391 1388
1287 1281 1276 1272 1270 1267 1268 1270 1274 1278 1284 1292 1301 1310 1318 1328 1337 1343 1342 1345 1355 1366 1372 1375 1374 1375 1375 1379 1384 1387 1389 1392 1392 1394 1397 1397 1400 1401 1397 1408 1410 1410 1409 1407 1404 1403 1402 1400 1397 1396 1394 1393 1390 1386
1290 1286 1282 1277 1272 1269 1267 1267 1271 1275 1282 1291 1302 1312 1320 1327 1333 1339 1347 1352 1358 1366 1366 1369 1371 1370 1372 1374 1378 1384 1386 1388 1389 1389 1392 1395 1397 1396 1408 1408 1408 1408 1409 1406 1403 1402 1400 1397 1394 1395 1394 1392 1390 1389
1293 1291 1287 1283 1280 1273 1271 1270 1273 1275 1282 1293 1305 1312 1320 1329 1333 1341 1352 1356 1360 1363 1364 1365 1365 1367 1369 1369 1374 1380 1381 1383 1384 1389 1391 1396 1405 1409 1409 1409 1408 1408 1407 1405 1401 1401 1399 1396 1395 1394 1393 1393 1392 1391
1298 1296 1292 1289 1288 1287 1283 1284 1286 1288 1294 1301 1305 1310 1323 1332 1336 1340 1347 1352 1358 1360 1360 1360 1361 1361 1366 1365 1369 1372 1375 1379 1379 1387 1390 1399 1404 1410 1411 1409 1407 1406 1404 1403 1402 1401 1399 1397 1396 1395 1393 1394 1394 1393
1303 1302 1299 1297 1295 1296 1296 1295 1297 1300 1301 1305 1309 1322 1328 1333 1337 1342 1347 1351 1352 1351 1355 1356 1357 1359 1360 1361 1363 1370 1370 1376 1376 1389 1393 1402 1410 1413 1412 1410 1408 1405 1404 1403 1403 1402 1400 1397 1397 1396 1397 1397 1396 1396
1307 1307 1306 1305 1304 1303 1304 1303 1305 1309 1313 1317 1320 1328 1336 1344 1352 1353 1348 1351 1352 1355 1355 1353 1354 1354 1355 1356 1356 1359 1365 1380 1387 1393 1402 1408 1411 1412 1411 1410 1408 1407 1406 1404 1404 1403 1402 1401 1400 1400 1401 1401 1401 1400
1310 1311 1311 1310 1310 1311 1313 1315 1314 1313 1315 1321 1331 1346 1352 1360 1361 1362 1362 1360 1358 1356 1354 1353 1352 1353 1356 1358 1362 1366 1384 1384 1395 1400 1407 1411 1413 1413 1412 1411 1410 1410 1409 1409 1409 1408 1407 1407 1407 1408 1408 1409 1409 1408
1314 1314 1314 1314 1313 1313 1313 1314 1315 1316 1322 1336 1344 1360 1363 1366 1364 1362 1360 1359 1359 1357 1355 1355 1357 1359 1364 1368 1376 1381 1388 1399 1401 1406 1412 1414 1415 1415 1415 1415 1414 1414 1415 1415 1416 1415 1415 1415 1414 1415 1416 1416 1416 1415
1316 1317 1316 1316 1316 1316 1315 1316 1316 1319 1335 1349 1362 1367 1368 1367 1366 1364 1362 1360 1359 1357 1358 1359 1363 1370 1377 1380 1387 1399 1394 1404 1411 1413 1415 1416 1417 1418 1418 1418 1418 1420 1421 1422 1422 1422 1422 1422 1421 1421 1422 1422 1423 1423
1317 1318 1319 1318 1318 1316 1314 1315 1320 1334 1351 1363 1373 1373 1372 1371 1371 1369 1366 1363 1361 1361 1364 1367 1374 1383 1384 1391 1400 1404 1408 1411 1413 1416 1418 1419 1420 1421 1422 1423 1425 1426 1427 1427 1427 1427 1426 1427 1427 1426 1425 1426 1427 1427
1317 1319 1320 1320 1319 1319 1317 1322 1336 1354 1369 1375 1376 1377 1375 1374 1372 1370 1368 1364 1363 1364 1369 1377 1382 1389 1396 1399 1405 1410 1412 1413 1416 1419 1421 1423 1424 1426 1427 1428 1430 1431 1431 1431 1431 1431 1431 1431 1429 1428 1429 1430 1431 1431
1318 1319 1319 1319 1319 1320 1329 1341 1348 1366 1379 1380 1380 1378 1377 1376 1374 1372 1369 1368 1366 1368 1373 1384 1392 1399 1404 1407 1409 1413 1415 1417 1419 1423 1425 1427 1429 1430 1431 1432 1433 1434 1434 1434 1434 1433 1433 1432 1432 1433 1433 1434 1434 1434
1320 1320 1320 1320 1321 1325 1341 1353 1358 1369 1380 1385 1384 1383 1382 1382 1379 1376 1374 1372 1372 1375 1388 1400 1408 1411 1411 1412 1414 1416 1419 1421 1423 1425 1429 1431 1433 1434 1435 1435 1436 1437 1437 1437 1436 1436 1435 1435 1435 1436 1436 1437 1437 1436
1323 1323 1323 1323 1325 1334 1349 1358 1366 1375 1382 1385 1386 1386 1388 1386 1383 1382 1380 1380 1381 1397 1409 1416 1416 1416 1417 1418 1420 1422 1424 1427 1428 1429 1431 1434 1436 1437 1438 1438 1439 1439 1439 1438 1438 1437 1437 1437 1438 1438 1439 1438 1437 1436
1326 1327 1328 1328 1335 1347 1358 1365 1368 1374 1380 1385 1386 1388 1391 1392 1392 1393 1396 1396 1409 1418 1418 1420 1421 1421 1422 1424 1426 1428 1429 1430 1432 1434 1435 1437 1438 1439 1440 1440 1441 1440 1440 1439 1440 1440 1440 1440 1440 1440 1440 1439 1438 1437
1330 1330 1331 1335 1343 1354 1370 1370 1372 1376 1381 1387 1389 1393 1397 1399 1402 1403 1411 1420 1425 1427 1426 1426 1426 1427 1427 1429 1431 1432 1434 1435 1436 1437 1439 1440 1440 1441 1441 1442 1442 1442 1441 1441 1441 1442 1442 1441 1441 1441 1441 1440 1440 1440
1332 1334 1338 1342 1350 1363 1367 1371 1375 1379 1383 1389 1394 1401 1404 1406 1408 1415 1427 1432 1434 1433 1432 1432 1432 1432 1433 1435 1435 1437 1438 1440 1440 1441 1442 1443 1443 1443 1443 1444 1444 1444 1444 1444 1443 1443 1443 1442 1442 1442 1441 1441 1441 1440
1336 1349 1348 1354 1357 1362 1372 1378 1381 1383 1393 1396 1401 1407 1408 1408 1416 1427 1433 1436 1436 1436 1436 1436 1436 1437 1437 1438 1440 1441 1442 1444 1444 1444 1444 1445 1445 1445 1445 1445 1445 1445 1444 1444 1444 1443 1443 1443 1442 1442 1441 1441 1440 1439
1351 1358 1358 1360 1363 1365 1374 1382 1386 1391 1393 1399 1405 1408 1409 1413 1424 1435 1434 1436 1437 1438 1439 1440 1440 1441 1441 1443 1443 1444 1445 1445 1446 1446 1445 1445 1445 1445 1445 1445 1444 1444 1444 1443 1443 1443 1443 1442 1442 1441 1440 1439 1438 1437
1362 1366 1365 1367 1367 1369 1377 1383 1386 1390 1399 1404 1407 1411 1415 1430 1438 1436 1436 1437 1439 1440 1441 1442 1443 1444 1444 1445 1445 1446 1446 1446 1446 1447 1446 1446 1445 1445 1445 1444 1444 1444 1443 1443 1442 1442 1441 1441 1440 1439 1438 1437 1436 1435
1366 1368 1371 1375 1375 1378 1386 1393 1399 1405 1405 1407 1408 1420 1427 1432 1434 1435 1436 1439 1441 1442 1442 1443 1444 1445 1446 1446 1447 1447 1447 1447 1447 1447 1447 1447 1446 1445 1444 1444 1443 1443 1442 1442 1441 1440 1439 1439 1438 1437 1436 1435 1434 1433
1372 1375 1376 1383 1385 1393 1402 1407 1408 1409 1409 1409 1414 1422 1427 1430 1432 1435 1438 1441 1443 1444 1445 1445 1446 1447 1448 1448 1448 1448 1448 1448 1448 1448 1447 1446 1446 1446 1445 1444 1443 1443 1442 1441 1439 1439 1438 1437 1436 1435 1435 1433 1432 1431
1379 1380 1384 1394 1403 1411 1413 1412 1411 1411 1411 1412 1415 1421 1427 1433 1437 1440 1442 1443 1445 1446 1446 1447 1447 1448 1449 1449 1449 1449 1449 1448 1448 1448 1447 1446 1446 1445 1444 1444 1443 1442 1441 1440 1438 1437 1436 1435 1434 1433 1432 1431 1429 1428
1381 1383 1391 1402 1413 1419 1418 1418 1417 1416 1416 1419 1424 1425 1429 1436 1441 1443 1444 1445 1446 1447 1448 1448 1449 1449 1450 1450 1449 1449 1448 1448 1447 1447 1446 1445 1445 1444 1443 1443 1442 1440 1439 1438 1437 1436 1435 1434 1433 1431 1430 1429 1427 1426
1385 1387 1394 1407 1417 1419 1418 1420 1422 1425 1428 1430 1432 1434 1436 1438 1441 1444 1445 1446 1447 1448 1448 1449 1450 1450 1450 1450 1449 1448 1448 1447 1447 1446 1445 1445 1444 1443 1442 1441 1440 1439 1438 1437 1436 1435 1434 1432 1431 1429 1428 1427 1425 1423
1394 1395 1398 1403 1412 1415 1418 1419 1423 1430 1432 1434 1436 1437 1438 1440 1442 1444 1445 1446 1448 1448 1449 1450 1450 1450 1450 1449 1449 1448 1448 1447 1446 1445 1445 1444 1443 1441 1440 1439 1438 1437 1436 1435 1434 1433 1432 1430 1429 1427 1426 1424 1422 1421